TimeCDT,TemperatureF,Dew PointF,Humidity,Sea Level PressureIn,VisibilityMPH,Wind Direction,Wind SpeedMPH,Gust SpeedMPH,PrecipitationIn,Events,Conditions,WindDirDegrees,DateUTC
12:14 AM,24.8,23.0,93,29.83,3.0,NW,3.5,-,N/A,Snow,Light Snow,310,2013-04-13 05:14:00
12:34 AM,24.8,23.0,93,29.83,5.0,NW,4.6,-,N/A,Snow,Light Snow,310,2013-04-13 05:34:00
12:53 AM,24.8,23.0,93,29.83,5.0,WNW,4.6,-,N/A,Snow,Light Snow,300,2013-04-13 05:53:00
1:15 AM,24.8,23.0,93,29.83,5.0,NW,4.6,-,N/A,Snow,Light Snow,320,2013-04-13 06:15:00
1:35 AM,24.8,23.0,93,29.83,7.0,NW,3.5,-,N/A,Snow,Light Snow,310,2013-04-13 06:35:00
1:53 AM,24.8,21.2,86,29.82,10.0,NW,5.8,-,N/A,Snow,Light Snow,310,2013-04-13 06:53:00
2:15 AM,24.8,21.2,86,29.82,5.0,NW,4.6,-,N/A,Snow,Light Snow,310,2013-04-13 07:15:00
2:34 AM,23.0,21.2,93,29.82,4.0,NW,4.6,-,N/A,Snow,Light Snow,310,2013-04-13 07:34:00
2:53 AM,23.0,21.2,93,29.82,5.0,WNW,3.5,-,N/A,Snow,Light Snow,300,2013-04-13 07:53:00
3:15 AM,21.2,21.2,100,29.82,7.0,WNW,3.5,-,N/A,,Overcast,300,2013-04-13 08:15:00
3:34 AM,21.2,19.4,93,29.82,7.0,NW,4.6,-,N/A,,Overcast,310,2013-04-13 08:34:00
3:53 AM,21.2,19.4,93,29.82,7.0,WNW,4.6,-,N/A,Snow,Light Snow,300,2013-04-13 08:53:00
4:14 AM,21.2,19.4,93,29.81,7.0,NW,3.5,-,N/A,Snow,Light Snow,310,2013-04-13 09:14:00
4:34 AM,21.2,19.4,93,29.81,10.0,WNW,4.6,-,N/A,,Overcast,290,2013-04-13 09:34:00
4:53 AM,21.2,21.2,100,29.82,10.0,WNW,3.5,-,N/A,,Overcast,290,2013-04-13 09:53:00
5:15 AM,19.4,19.4,100,29.81,10.0,WNW,4.6,-,N/A,,Mostly Cloudy,300,2013-04-13 10:15:00
5:35 AM,19.4,19.4,100,29.82,10.0,WNW,4.6,-,N/A,,Scattered Clouds,290,2013-04-13 10:35:00
5:53 AM,19.4,19.4,100,29.82,10.0,WNW,3.5,-,N/A,,Scattered Clouds,290,2013-04-13 10:53:00
6:14 AM,19.4,17.6,93,29.82,10.0,WNW,3.5,-,N/A,,Clear,300,2013-04-13 11:14:00
6:34 AM,19.4,19.4,100,29.82,7.0,WNW,3.5,-,N/A,,Mostly Cloudy,290,2013-04-13 11:34:00
6:52 AM,19.4,17.6,93,29.83,5.0,West,4.6,-,N/A,,Overcast,270,2013-04-13 11:52:00
7:15 AM,19.4,19.4,100,29.84,5.0,West,3.5,-,N/A,,Overcast,280,2013-04-13 12:15:00
7:35 AM,19.4,19.4,100,29.84,7.0,WNW,3.5,-,N/A,,Overcast,300,2013-04-13 12:35:00
7:53 AM,21.2,19.4,93,29.85,1.8,NW,4.6,-,N/A,Snow,Light Snow,310,2013-04-13 12:53:00
8:15 AM,21.2,21.2,100,29.85,2.0,North,5.8,-,N/A,Snow,Light Snow,350,2013-04-13 13:15:00
8:34 AM,21.2,19.4,93,29.85,3.0,NE,6.9,-,N/A,Snow,Light Snow,40,2013-04-13 13:34:00
8:53 AM,21.2,19.4,93,29.85,2.5,NE,6.9,-,N/A,Snow,Light Snow,40,2013-04-13 13:53:00
9:15 AM,21.2,19.4,93,29.85,4.0,NE,5.8,-,N/A,Snow,Light Snow,50,2013-04-13 14:15:00
9:35 AM,21.2,17.6,86,29.85,10.0,NNE,8.1,-,N/A,,Clear,20,2013-04-13 14:35:00
9:52 AM,23.0,17.6,80,29.85,10.0,North,4.6,-,0.01,,Mostly Cloudy,350,2013-04-13 14:52:00
10:15 AM,23.0,17.6,80,29.85,10.0,Calm,Calm,-,N/A,,Overcast,0,2013-04-13 15:15:00
10:35 AM,24.8,17.6,74,29.85,10.0,North,3.5,-,N/A,,Overcast,10,2013-04-13 15:35:00
10:53 AM,24.8,17.6,74,29.86,10.0,Calm,Calm,-,N/A,,Overcast,0,2013-04-13 15:53:00
11:14 AM,24.8,17.6,74,29.86,10.0,Calm,Calm,-,N/A,,Mostly Cloudy,0,2013-04-13 16:14:00
11:35 AM,24.8,15.8,69,29.87,10.0,Calm,Calm,-,N/A,,Scattered Clouds,0,2013-04-13 16:35:00
11:53 AM,26.6,17.6,69,29.87,10.0,Calm,Calm,-,N/A,,Mostly Cloudy,0,2013-04-13 16:53:00
12:15 PM,26.6,15.8,64,29.87,10.0,Calm,Calm,-,N/A,,Unknown,0,2013-04-13 17:15:00
12:34 PM,28.4,15.8,59,29.87,10.0,NW,4.6,-,N/A,,Overcast,320,2013-04-13 17:34:00
12:53 PM,26.6,15.8,64,29.87,10.0,NW,4.6,-,N/A,,Mostly Cloudy,310,2013-04-13 17:53:00
1:15 PM,28.4,15.8,59,29.87,10.0,WNW,4.6,-,N/A,,Mostly Cloudy,300,2013-04-13 18:15:00
1:34 PM,28.4,15.8,59,29.86,10.0,North,3.5,-,N/A,,Mostly Cloudy,360,2013-04-13 18:34:00
1:53 PM,28.4,15.8,59,29.86,10.0,Calm,Calm,-,N/A,,Scattered Clouds,0,2013-04-13 18:53:00
2:15 PM,30.2,15.8,55,29.86,10.0,Calm,Calm,-,N/A,,Unknown,0,2013-04-13 19:15:00
2:35 PM,30.2,15.8,55,29.86,10.0,Calm,Calm,-,N/A,,Unknown,0,2013-04-13 19:35:00
2:52 PM,30.2,15.8,55,29.86,10.0,Calm,Calm,-,N/A,,Scattered Clouds,0,2013-04-13 19:52:00
3:14 PM,30.2,15.8,55,29.86,10.0,Calm,Calm,-,N/A,,Overcast,0,2013-04-13 20:14:00
3:34 PM,30.2,17.6,60,29.86,10.0,SSE,4.6,-,N/A,,Overcast,150,2013-04-13 20:34:00
3:53 PM,30.2,15.8,55,29.86,10.0,SSE,3.5,-,N/A,,Scattered Clouds,160,2013-04-13 20:53:00
4:15 PM,30.2,15.8,55,29.86,10.0,Calm,Calm,-,N/A,,Scattered Clouds,0,2013-04-13 21:15:00
4:35 PM,32.0,17.6,55,29.85,10.0,Calm,Calm,-,N/A,,Clear,0,2013-04-13 21:35:00
4:53 PM,32.0,15.8,51,29.85,10.0,Calm,Calm,-,N/A,,Scattered Clouds,0,2013-04-13 21:53:00
5:15 PM,30.2,17.6,60,29.85,10.0,ESE,3.5,-,N/A,,Clear,120,2013-04-13 22:15:00
5:35 PM,30.2,17.6,60,29.85,10.0,South,4.6,-,N/A,,Scattered Clouds,170,2013-04-13 22:35:00
5:52 PM,30.2,15.8,55,29.86,10.0,Calm,Calm,-,N/A,,Scattered Clouds,0,2013-04-13 22:52:00
6:14 PM,30.2,15.8,55,29.86,10.0,Calm,Calm,-,N/A,,Scattered Clouds,0,2013-04-13 23:14:00
6:34 PM,32.0,17.6,55,29.86,10.0,Calm,Calm,-,N/A,,Mostly Cloudy,0,2013-04-13 23:34:00
6:52 PM,30.2,15.8,55,29.86,10.0,Calm,Calm,-,N/A,,Scattered Clouds,0,2013-04-13 23:52:00
7:14 PM,30.2,17.6,60,29.85,10.0,East,5.8,-,N/A,,Clear,90,2013-04-14 00:14:00
7:34 PM,30.2,15.8,55,29.85,10.0,ENE,5.8,-,N/A,,Clear,60,2013-04-14 00:34:00
7:52 PM,30.2,15.8,55,29.85,10.0,East,4.6,-,N/A,,Clear,80,2013-04-14 00:52:00
8:14 PM,28.4,15.8,59,29.86,10.0,East,4.6,-,N/A,,Clear,80,2013-04-14 01:14:00
8:35 PM,28.4,15.8,59,29.87,10.0,East,3.5,-,N/A,,Clear,90,2013-04-14 01:35:00
8:53 PM,28.4,15.8,59,29.88,10.0,ESE,3.5,-,N/A,,Clear,120,2013-04-14 01:53:00
9:15 PM,26.6,15.8,64,29.89,10.0,East,3.5,-,N/A,,Clear,90,2013-04-14 02:15:00
9:34 PM,26.6,15.8,64,29.90,10.0,East,3.5,-,N/A,,Clear,100,2013-04-14 02:34:00
9:53 PM,26.6,15.8,64,29.91,10.0,ESE,3.5,-,N/A,,Clear,110,2013-04-14 02:53:00
10:15 PM,24.8,15.8,69,29.91,10.0,ESE,4.6,-,N/A,,Mostly Cloudy,110,2013-04-14 03:15:00
10:35 PM,26.6,15.8,64,29.91,10.0,East,3.5,-,N/A,,Scattered Clouds,100,2013-04-14 03:35:00
10:53 PM,24.8,15.8,69,29.91,10.0,ESE,4.6,-,N/A,,Clear,110,2013-04-14 03:53:00
11:15 PM,24.8,15.8,69,29.91,10.0,East,3.5,-,N/A,,Clear,90,2013-04-14 04:15:00
11:34 PM,24.8,15.8,69,29.91,10.0,East,3.5,-,N/A,,Clear,90,2013-04-14 04:34:00
11:53 PM,21.2,15.8,80,29.91,10.0,Calm,Calm,-,N/A,,Clear,0,2013-04-14 04:53:00